Temperature
11 11 11 11 11 11 11 12 11 11 12 12 11 11 11 11 11 11 11 11 11 11 11 11 11 11 11 11 11 11 11 11 11 11 11 11 11 11 11 11 11 10 11
10 10 10 11 11 11 11 11 11 11 11 11 11 11 11 11 11 11 10 10 11 11 11 11 11 11 11 11 11 11 11 11 11 11 10 10 10 10 10 10 10 10 10
10 9 10 10 10 10 10 10 10 10 10 10 10 10 10 10 10 10 10 10 10 10 10 10 10 10 10 10 10 10 10 10 10 10 10 10 10 9 9 9 10 10 10
9 9 9 9 9 9 10 10 10 10 10 10 10 10 10 10 10 10 10 10 10 10 10 10 10 10 10 10 10 10 10 10 10 9 9 9 9 9 9 9 9 9 9
8 8 8 8 9 9 9 9 9 9 9 9 9 9 9 9 9 9 9 9 10 10 10 10 10 10 10 10 10 10 9 9 9 9 9 9 8 8 8 8 8 8 8
8 8 8 8 8 8 8 8 8 9 9 9 9 9 9 9 9 9 9 9 9 9 9 9 9 9 10 10 9 9 9 9 9 9 8 8 8 8 8 8 8 8 8
7 7 7 7 7 7 8 8 8 8 8 8 8 8 8 8 8 9 9 9 9 9 9 9 9 9 9 9 9 9 9 8 8 8 8 8 8 8 7 7 7 7 7
7 7 7 7 7 7 7 7 7 7 7 7 7 7 7 7 7 8 8 8 8 8 8 8 8 9 9 9 9 9 8 8 8 8 7 7 7 7 7 7 7 7 7
6 6 6 6 6 6 6 6 6 6 6 6 7 6 7 7 7 7 8 8 7 8 8 8 8 8 8 8 8 8 8 8 8 7 7 7 7 6 6 6 6 6 7
5 5 5 5 6 6 6 6 6 6 6 6 6 6 6 6 6 6 6 7 7 7 7 7 7 7 7 7 7 8 8 8 7 7 7 7 6 6 6 6 6 6 6
5 5 5 5 5 5 5 5 5 5 5 5 5 5 5 6 6 6 5 6 6 6 7 7 7 7 7 7 7 7 7 7 7 7 7 6 6 6 6 6 6 6 6
4 4 4 4 4 4 4 5 5 5 5 5 5 5 5 5 5 5 5 5 5 5 6 6 6 6 6 6 6 6 6 6 6 6 6 6 6 5 5 5 5 5 5
3 3 3 3 3 4 4 4 4 4 4 4 4 4 4 4 4 4 4 4 4 4 5 5 5 5 5 6 6 6 6 6 6 5 5 5 5 5 5 5 5 5 4
3 3 3 3 3 3 3 3 3 3 3 4 4 4 4 4 4 4 4 3 3 3 4 4 4 4 5 5 5 5 5 5 5 5 5 5 5 5 5 4 4 4 4
2 2 2 2 2 2 2 2 2 2 3 3 3 3 3 3 3 3 3 3 3 3 3 3 4 4 4 4 4 4 4 4 4 4 4 4 4 4 4 4 4 3 3
2 2 2 2 2 2 2 2 2 2 2 2 2 2 2 2 3 3 2 3 2 2 2 3 3 3 3 3 4 4 4 4 4 4 4 4 4 4 4 3 3 3 3
1 1 1 1 1 1 1 1 1 1 1 1 1 1 2 2 2 2 2 2 2 2 2 2 2 3 3 3 3 3 3 3 3 3 3 3 3 3 3 3 3 3 2
1 1 1 1 1 1 1 1 1 1 1 1 1 1 1 1 1 1 1 1 1 1 1 1 2 2 2 2 2 2 2 2 2 3 3 3 2 2 2 2 2 2 2
0 0 0 1 1 0 0 0 0 0 0 0 0 0 0 0 0 0 1 1 1 1 1 1 1 1 1 1 1 1 1 2 2 2 2 2 2 2 2 2 2 2 2
-0 -0 0 0 0 0 -0 -0 -0 -0 -0 -0 -0 -0 -0 -0 -0 -0 0 0 0 0 0 -0 -0 -0 -0 0 0 0 1 1 1 1 1 1 1 1 2 2 1 1 1
-1 -1 -0 -1 -1 -1 -1 -1 -1 -1 -1 -1 -1 -1 -1 -1 -1 -1 -0 -0 -0 -1 -1 -1 -1 -1 -1 -1 -1 -1 -0 -0 -0 -0 -0 0 0 0 1 1 1 1 1
-1 -1 -1 -1 -1 -1 -1 -1 -1 -1 -1 -1 -1 -1 -1 -1 -1 -1 -1 -1 -1 -1 -1 -1 -1 -1 -1 -1 -1 -1 -1 -1 -2 -1 -1 -1 -0 -0 -0 -0 -0 0 0
-1 -1 -1 -1 -1 -1 -2 -2 -2 -2 -2 -2 -2 -2 -2 -2 -1 -1 -1 -1 -1 -1 -2 -2 -2 -2 -2 -2 -2 -2 -2 -2 -2 -2 -2 -1 -1 -1 -1 -1 -1 -1 -1
-2 -2 -2 -2 -2 -2 -2 -2 -2 -2 -2 -2 -2 -2 -2 -2 -2 -2 -2 -2 -2 -2 -2 -2 -2 -2 -2 -2 -2 -2 -2 -2 -2 -2 -2 -2 -2 -2 -1 -1 -1 -1 -1
-2 -2 -2 -2 -2 -2 -2 -2 -2 -3 -3 -3 -3 -2 -2 -2 -2 -2 -2 -3 -3 -3 -2 -2 -2 -2 -2 -2 -3 -3 -3 -3 -3 -3 -3 -3 -3 -2 -2 -2 -2 -2 -2
-3 -3 -3 -3 -3 -3 -3 -3 -3 -3 -3 -3 -3 -3 -3 -3 -3 -3 -3 -3 -3 -3 -3 -3 -3 -3 -3 -3 -3 -3 -3 -3 -4 -4 -4 -3 -3 -4 -3 -3 -2 -2 -2
Wind_Speed
2 2 2 2 2 2 1 0 0 1 2 3 3 3 3 2 2 2 2 3 1 1 1 1 2 2 2 2 3 4 4 4 4 4 4 3 2 1 1 1 2 2 3
2 2 2 2 2 2 1 0 0 0 1 2 3 2 2 2 2 2 2 2 2 1 0 1 1 1 1 1 2 2 3 3 3 4 4 3 2 2 2 2 2 3 3
2 2 1 1 2 2 1 0 1 1 1 1 2 2 2 2 2 2 2 2 2 2 0 0 0 1 1 1 2 2 2 2 2 2 2 2 1 2 3 3 3 3 3
3 2 1 1 2 1 1 1 0 1 1 1 1 0 1 1 2 2 2 2 1 1 1 0 1 2 2 1 1 1 2 2 1 2 2 2 2 2 2 3 4 4 4
3 2 2 2 1 1 1 1 0 0 1 1 0 0 1 1 2 2 2 2 2 1 1 1 0 1 2 2 2 2 1 2 2 2 3 3 2 3 4 4 4 4 5
3 2 2 1 1 0 1 1 0 1 1 0 0 0 1 1 2 2 2 2 2 2 2 2 2 1 0 2 2 2 3 3 3 3 4 4 4 4 5 5 5 5 5
3 2 1 1 1 0 0 0 0 1 1 0 1 1 2 2 2 2 2 2 2 2 2 2 2 1 1 1 2 3 3 3 3 3 4 5 6 5 5 5 5 5 6
3 2 1 1 1 0 0 0 0 1 0 0 1 2 2 3 2 2 2 2 2 2 2 2 2 2 1 1 0 2 3 3 4 4 5 6 6 6 5 5 6 6 6
2 2 2 2 1 1 1 1 2 2 1 1 1 2 2 3 1 2 2 2 3 2 2 2 2 2 2 1 1 1 2 4 5 5 6 7 6 6 6 6 7 7 7
2 2 2 2 2 1 2 2 2 2 2 2 2 2 3 2 2 1 2 2 2 2 2 2 2 2 2 2 1 1 2 4 5 6 7 8 7 7 7 7 8 8 7
2 2 2 2 2 2 2 2 2 2 2 3 2 2 2 2 3 2 3 2 2 2 2 2 2 2 2 2 2 2 3 4 5 6 7 8 8 8 8 8 8 8 8
2 2 2 2 2 2 2 2 2 3 3 3 3 3 3 2 2 2 3 3 3 2 2 2 2 2 2 2 2 2 3 4 4 6 6 7 8 8 8 8 8 8 9
2 2 2 2 2 2 2 2 2 2 3 3 3 3 3 3 2 3 3 3 3 2 2 2 2 2 2 2 2 3 4 4 4 5 6 7 7 8 8 9 9 9 9
3 3 3 3 3 2 2 2 3 3 3 3 3 3 3 3 3 3 3 3 4 3 3 3 2 2 2 2 2 3 3 3 4 5 6 6 6 7 7 8 9 9 10
2 3 3 3 3 3 3 3 3 3 3 3 3 3 3 3 3 3 3 4 4 4 4 3 2 2 2 3 3 4 4 3 4 5 5 5 5 6 7 7 8 9 9
2 3 3 3 3 3 3 3 3 3 4 3 3 4 4 3 3 3 3 4 4 4 5 3 3 2 3 3 4 4 4 4 4 4 4 5 5 6 6 7 8 8 8
2 2 3 3 3 3 3 3 4 4 5 4 4 4 4 4 4 4 4 4 4 4 6 5 3 3 4 3 4 4 4 4 4 3 4 5 5 6 6 7 8 8 9
2 3 3 3 3 3 3 4 4 5 5 5 5 5 5 4 5 5 4 5 4 5 6 6 4 3 4 4 4 4 4 4 4 4 5 6 6 6 6 7 8 8 9
3 3 2 2 3 3 3 4 4 5 5 5 5 5 5 5 5 5 5 5 4 4 4 5 5 4 3 3 4 4 4 4 4 5 5 5 6 6 7 8 8 9 9
3 3 3 3 3 3 3 3 4 4 4 4 5 5 5 5 5 5 5 5 4 4 4 5 4 4 3 3 3 3 3 3 3 4 5 5 6 7 8 8 8 8 8
2 3 2 2 2 3 3 3 3 4 4 4 4 4 4 4 5 5 4 4 4 4 4 5 5 4 4 3 3 3 4 4 4 3 4 4 5 5 6 6 7 7 8
2 2 2 2 3 2 3 3 3 4 4 4 4 4 3 4 4 5 6 5 4 5 5 5 5 5 6 5 4 3 3 3 4 2 4 5 5 5 5 5 6 7 8
2 2 2 2 3 3 3 3 3 3 4 4 4 3 3 3 4 4 4 4 4 5 7 7 7 7 6 5 4 5 4 5 5 4 5 5 5 5 5 5 6 7 7
2 2 2 2 3 3 3 3 3 3 3 3 3 4 4 4 4 4 4 4 4 5 6 6 6 6 6 5 5 5 5 5 5 4 4 5 5 5 6 6 5 6 7
2 2 2 2 2 3 3 2 3 2 2 3 3 3 3 4 3 3 4 4 4 4 4 5 6 5 6 6 5 3 3 3 4 4 3 3 4 6 6 5 4 6 7
2 2 2 2 2 3 3 2 3 2 3 3 3 3 3 4 4 4 4 4 4 4 4 4 4 4 4 4 4 5 4 4 4 4 3 3 4 4 4 4 4 5 6
Wind_Direction
358 349 349 350 346 355 359 341 97 168 159 144 142 150 150 160 159 171 147 114 140 201 209 213 211 209 188 185 196 200 198 199 204 203 204 211 215 228 313 358 358 340 345
3 346 342 354 359 353 346 11 125 217 163 148 144 144 148 166 175 178 191 159 135 158 222 220 227 232 227 190 171 175 194 210 222 217 219 224 222 240 263 286 314 321 332
358 346 340 3 4 347 333 86 132 122 125 144 147 152 158 167 181 191 193 205 187 154 153 249 292 296 280 247 216 200 179 207 239 222 212 216 236 252 269 282 290 301 312
5 358 3 1 357 348 357 38 100 144 133 147 140 172 191 172 188 201 189 194 200 205 192 59 11 331 321 295 253 222 188 184 208 216 226 227 250 261 283 293 288 287 292
2 17 13 7 351 9 45 38 53 139 140 111 92 254 245 214 201 196 191 191 193 204 210 177 122 7 340 304 292 283 224 208 218 233 238 241 256 268 277 282 286 289 288
3 11 18 7 0 23 58 60 76 98 136 142 85 297 267 233 215 204 205 195 195 204 208 208 209 199 205 303 304 303 267 250 245 239 244 249 256 265 270 274 276 286 291
358 6 3 352 346 341 66 75 95 105 73 175 229 247 240 232 219 210 207 205 208 215 209 206 198 206 217 231 315 316 301 291 286 270 262 260 263 266 271 271 274 281 286
346 348 342 315 312 329 82 102 160 222 304 260 240 237 225 211 209 220 211 208 217 213 208 210 200 194 206 227 336 325 319 310 299 293 288 280 272 272 271 278 283 285 286
329 335 324 319 320 283 243 232 236 225 227 233 248 254 244 230 212 192 213 217 219 214 203 200 206 215 218 232 255 299 311 301 302 295 291 283 276 276 278 283 287 290 291
324 323 311 310 301 278 256 244 243 243 228 230 233 250 268 292 244 218 200 209 223 229 230 217 210 211 216 226 225 298 306 293 296 294 291 285 273 272 277 281 283 287 289
318 319 309 298 293 284 269 256 251 243 236 236 237 240 245 254 258 250 244 229 223 229 246 237 214 204 215 225 246 293 283 284 293 296 292 289 282 274 276 279 282 284 290
306 311 298 288 285 284 278 266 254 246 243 238 238 242 247 242 236 242 250 253 253 242 239 237 224 222 229 242 246 264 260 266 285 293 295 293 292 286 283 283 283 284 288
296 305 300 292 292 288 285 278 265 254 248 243 240 241 245 253 258 254 250 259 263 260 247 236 235 235 240 256 255 257 249 258 276 285 293 295 295 292 286 286 285 285 288
290 302 293 285 284 283 279 267 264 260 253 246 245 244 243 249 251 248 246 251 257 249 240 237 232 236 248 262 276 273 261 264 276 285 290 293 295 295 290 288 285 287 289
297 296 289 286 282 274 266 261 260 260 254 249 246 244 245 250 252 248 245 240 246 253 247 235 233 238 275 279 277 275 274 285 289 290 287 287 291 293 292 292 290 289 290
297 289 283 276 273 265 257 254 256 259 254 251 247 245 246 244 239 241 240 241 244 252 257 251 257 283 292 291 288 278 270 272 266 279 285 289 294 293 291 293 296 290 288
292 288 284 274 270 267 259 251 251 251 249 250 249 247 250 249 242 240 235 235 239 246 253 261 262 273 282 281 292 289 279 277 270 271 283 283 287 290 289 292 293 291 286
282 280 278 273 271 271 268 258 255 253 252 253 254 250 248 245 242 243 238 236 238 246 250 258 265 269 277 281 287 288 294 288 277 272 275 275 274 276 281 287 289 289 287
274 276 274 274 273 273 271 267 261 258 254 254 255 252 247 242 241 239 236 236 237 241 248 251 259 267 274 275 285 288 291 292 290 277 270 267 269 273 279 282 285 288 290
269 275 280 280 276 275 270 270 266 261 257 253 253 252 250 245 243 240 237 235 235 237 244 247 248 256 264 270 268 279 291 294 299 298 288 275 270 269 271 277 281 284 288
271 271 272 278 278 270 271 271 266 263 258 255 253 254 255 257 257 248 242 238 235 238 241 248 247 257 261 256 262 279 281 298 302 297 301 295 289 283 280 274 278 284 289
276 271 264 270 276 278 289 285 283 265 259 260 260 264 262 253 254 248 247 250 247 245 245 248 249 247 254 263 274 262 270 285 292 299 306 304 302 292 293 290 292 292 291
288 275 269 273 275 277 292 284 290 275 261 264 262 264 268 264 263 250 242 242 249 257 256 253 256 252 257 259 264 259 258 272 283 292 301 295 299 298 299 296 299 296 298
284 284 273 275 280 280 292 288 288 275 269 273 273 270 270 270 265 249 244 243 248 255 258 255 256 262 262 260 255 259 268 283 289 287 286 283 298 301 307 301 293 296 305
282 283 272 269 273 279 287 285 274 271 270 277 282 278 272 273 271 254 253 251 256 266 267 262 264 269 275 270 262 252 257 264 280 290 294 282 296 308 302 292 293 293 299
269 277 280 274 274 279 291 289 276 264 267 275 276 275 274 277 278 266 257 258 262 269 268 267 266 260 260 258 252 252 247 246 269 278 282 289 292 309 299 293 304 307 301
Height
1511 1511 1511 1511 1511 1511 1511 1512 1513 1514 1514 1515 1516 1517 1517 1519 1520 1521 1521 1522 1523 1524 1525 1525 1526 1526 1527 1527 1527 1527 1527 1527 1527 1527 1527 1527 1527 1527 1527 1527 1526 1526 1525
1509 1509 1509 1509 1509 1509 1509 1510 1510 1511 1511 1512 1513 1514 1515 1516 1517 1518 1519 1520 1521 1522 1522 1523 1524 1524 1525 1525 1525 1525 1525 1525 1525 1525 1525 1525 1525 1525 1525 1525 1524 1524 1524
1507 1507 1506 1506 1506 1507 1507 1507 1508 1509 1509 1509 1510 1512 1512 1514 1515 1516 1517 1518 1518 1519 1520 1521 1521 1522 1522 1523 1523 1523 1523 1523 1523 1523 1523 1523 1523 1523 1523 1523 1522 1522 1521
1504 1504 1504 1504 1504 1504 1504 1505 1506 1506 1507 1507 1508 1509 1510 1511 1512 1513 1514 1515 1516 1516 1517 1518 1519 1520 1520 1520 1520 1520 1520 1521 1521 1521 1521 1521 1521 1521 1521 1520 1520 1519 1519
1502 1502 1502 1501 1501 1502 1502 1502 1503 1504 1504 1505 1506 1506 1507 1508 1509 1510 1511 1512 1513 1513 1514 1515 1516 1517 1517 1518 1518 1517 1518 1518 1518 1518 1519 1518 1518 1518 1518 1518 1517 1517 1516
1499 1499 1499 1499 1499 1499 1499 1500 1500 1501 1502 1502 1503 1504 1505 1505 1506 1507 1508 1509 1510 1510 1511 1512 1512 1513 1514 1514 1515 1515 1516 1516 1516 1516 1516 1516 1515 1515 1515 1515 1515 1514 1514
1497 1497 1497 1497 1497 1497 1497 1497 1498 1499 1499 1500 1501 1502 1502 1503 1503 1504 1505 1506 1507 1507 1508 1509 1509 1510 1510 1511 1511 1512 1512 1513 1513 1513 1513 1513 1513 1512 1512 1512 1512 1512 1511
1495 1494 1494 1494 1494 1494 1494 1495 1496 1496 1497 1498 1499 1500 1501 1501 1500 1501 1502 1503 1504 1504 1505 1505 1506 1506 1507 1507 1508 1509 1509 1510 1510 1510 1510 1510 1510 1509 1509 1509 1509 1508 1508
1492 1492 1492 1492 1492 1492 1492 1493 1494 1494 1495 1496 1497 1498 1499 1498 1498 1498 1498 1499 1500 1501 1501 1502 1502 1503 1503 1504 1504 1505 1506 1506 1506 1506 1507 1506 1506 1506 1506 1506 1505 1505 1505
1490 1489 1489 1489 1489 1489 1490 1490 1491 1492 1492 1493 1494 1494 1496 1496 1497 1496 1496 1496 1497 1497 1498 1498 1499 1499 1500 1500 1500 1501 1502 1502 1502 1503 1503 1503 1502 1502 1502 1502 1502 1501 1501
1487 1487 1487 1487 1487 1487 1487 1488 1488 1489 1489 1490 1490 1491 1492 1493 1493 1494 1494 1494 1494 1494 1494 1495 1495 1496 1496 1497 1497 1497 1498 1498 1498 1499 1498 1498 1498 1498 1498 1497 1497 1497 1497
1485 1484 1484 1484 1484 1484 1484 1485 1485 1486 1486 1487 1487 1488 1489 1490 1490 1491 1492 1491 1491 1491 1491 1492 1492 1492 1492 1493 1493 1494 1494 1494 1494 1494 1494 1494 1494 1494 1493 1493 1493 1492 1492
1483 1482 1482 1482 1482 1481 1482 1482 1482 1483 1483 1484 1484 1485 1486 1486 1487 1488 1489 1489 1489 1488 1488 1488 1489 1489 1489 1489 1489 1490 1490 1490 1490 1490 1490 1490 1489 1489 1489 1488 1488 1488 1488
1480 1480 1479 1479 1479 1479 1479 1479 1479 1479 1480 1481 1481 1481 1482 1483 1483 1485 1486 1486 1486 1486 1485 1485 1485 1486 1486 1486 1486 1486 1486 1486 1486 1486 1486 1485 1485 1485 1484 1484 1484 1483 1483
1477 1476 1476 1476 1476 1476 1476 1476 1476 1476 1477 1477 1477 1478 1478 1479 1480 1481 1482 1483 1484 1483 1483 1482 1482 1482 1482 1482 1482 1482 1482 1482 1482 1482 1481 1481 1481 1480 1480 1479 1479 1478 1478
1474 1474 1473 1473 1473 1473 1473 1473 1473 1473 1473 1473 1474 1474 1475 1475 1476 1477 1478 1479 1479 1480 1479 1478 1479 1479 1478 1478 1479 1478 1478 1478 1478 1477 1476 1476 1476 1475 1475 1474 1474 1473 1472
1471 1471 1471 1470 1470 1470 1470 1470 1470 1470 1470 1470 1470 1471 1471 1471 1472 1473 1473 1474 1475 1475 1475 1475 1475 1475 1475 1475 1475 1475 1474 1474 1473 1473 1472 1471 1471 1471 1470 1469 1469 1468 1467
1469 1468 1468 1467 1467 1467 1467 1467 1467 1467 1467 1467 1467 1467 1467 1468 1468 1469 1469 1470 1471 1471 1471 1471 1471 1471 1471 1471 1471 1471 1470 1469 1469 1468 1468 1467 1466 1466 1465 1464 1464 1463 1462
1466 1465 1465 1464 1464 1464 1464 1463 1463 1463 1463 1463 1464 1464 1464 1464 1464 1465 1465 1466 1467 1467 1467 1467 1466 1467 1467 1467 1467 1466 1466 1465 1465 1464 1463 1462 1462 1461 1461 1460 1459 1458 1457
1463 1462 1462 1461 1461 1461 1461 1460 1460 1460 1460 1460 1460 1460 1460 1460 1461 1461 1461 1462 1463 1463 1463 1463 1463 1462 1463 1463 1463 1462 1462 1461 1461 1460 1459 1458 1457 1456 1456 1455 1454 1453 1452
1459 1459 1459 1458 1458 1458 1458 1457 1457 1457 1456 1457 1457 1457 1457 1457 1457 1458 1458 1458 1459 1459 1459 1459 1459 1459 1459 1459 1459 1458 1458 1457 1456 1456 1455 1454 1453 1452 1451 1450 1449 1448 1447
1456 1456 1456 1455 1455 1455 1455 1454 1454 1454 1454 1453 1453 1453 1453 1454 1454 1454 1454 1455 1455 1456 1456 1456 1455 1455 1455 1455 1455 1455 1454 1453 1452 1453 1452 1450 1449 1447 1446 1446 1444 1443 1442
1453 1453 1453 1452 1452 1452 1452 1452 1451 1451 1451 1451 1451 1451 1450 1450 1450 1450 1451 1451 1451 1452 1452 1452 1451 1451 1451 1451 1451 1451 1451 1450 1449 1448 1448 1446 1445 1443 1443 1441 1441 1440 1438
1451 1450 1450 1450 1450 1450 1449 1449 1449 1448 1448 1448 1448 1448 1448 1447 1447 1447 1447 1447 1447 1448 1447 1447 1447 1447 1448 1448 1448 1448 1447 1446 1446 1445 1444 1443 1441 1440 1439 1438 1437 1436 1435
1448 1448 1448 1448 1447 1447 1447 1447 1447 1446 1446 1446 1446 1445 1445 1445 1445 1444 1444 1444 1444 1444 1444 1444 1444 1443 1443 1444 1444 1443 1443 1443 1441 1441 1441 1440 1438 1436 1435 1434 1434 1433 1431
1446 1446 1446 1446 1445 1445 1445 1445 1445 1444 1444 1444 1444 1443 1443 1442 1442 1442 1441 1441 1440 1440 1441 1440 1440 1440 1440 1440 1440 1440 1439 1439 1438 1438 1437 1437 1435 1434 1432 1431 1431 1429 1428